Location: *
(13.2257°S, 48.7193°W)
Time: 13:03:17
(UTC+00:00)

GPS 2-15 Rocket1 - Pass Details

Date: 13 February 2026
Orbit: 607 x 652 km, 19.8° (Epoch: 10 March)

Event Time Altitude Azimuth Distance (km) Brightness Sun altitude
Exits shadow 08:39:13 - 311° (NW) 2,058 5.2 -8.7°
Reaches altitude 10° 08:39:33 10° 312° (NW) 1,941 5.1 -8.7°
Maximum altitude 08:43:45 38° 20° (NNE) 935 4.0 -7.7°
Drops below altitude 10° 08:48:01 10° 88° (E) 1,963 7.1 -6.7°
Sets 08:50:30 0° 96° (E) 2,876 8.8 -6.1°
